Date String (YYYY-MM-DD hh:mm:ss) UTC,Instrument flags,absolute air pressure of the measurement (hPa),sample flow rate (lpm),inlet stack bypass flow (lpm),air temperature of the measurement (°C),ambient temperature measured by the external sensor (°C),aerosol sample conditioner tube jacket temperature (°C),OPC LED temperature (°C),internal box temperature (°C),relative humidity of the measurement (%),span deviation,mass concentration of particles derived from Lorenz-Mie calculation of OPC scattering (μg/m³),mass concentration of particles derived from Lorenz-Mie calculation of OPC scattering (μg/m³),mass concentration of particles derived from Lorenz-Mie calculation of OPC scattering (μg/m³)
DateTimeUTC,F1_M11,P_M11,Q1_M11,Q2_M11,T1_M11,T2_M11,T3_M11,T4_M11,T5_M11,U1_M11,ZSPAN_M11,X0_M11,X2_M11,X1_M11
2024-02-14 06:00:00,SystemResetWarning,0824.7,5.00,000.00,022.0,021.3,000.0,030.6,023.9,11.5,0000.0,0012.18,0004.69,0004.22
2024-02-14 06:01:00,SystemResetWarning,0824.7,5.00,000.00,022.0,021.3,000.0,030.6,023.9,11.5,0000.0,0011.50,0004.66,0004.20
2024-02-14 06:02:00,SystemResetWarning,0824.7,5.00,000.00,022.0,021.3,000.0,030.6,023.8,11.6,0000.0,0010.72,0004.60,0004.15
2024-02-14 06:03:00,SystemResetWarning,0824.7,5.00,000.00,022.0,021.3,000.0,030.6,023.8,11.5,0000.0,0010.68,0004.56,0004.11
2024-02-14 06:04:00,SystemResetWarning,0824.7,5.00,000.00,021.9,021.3,000.0,030.6,023.8,11.5,0000.0,0011.39,0004.49,0004.07
2024-02-14 06:05:00,SystemResetWarning,0824.7,5.00,000.00,021.9,021.2,000.0,030.5,023.7,11.5,0000.0,0010.98,0004.44,0004.03
2024-02-14 06:06:00,SystemResetWarning,0824.7,5.00,000.00,021.9,021.2,000.0,030.5,023.7,11.7,0000.0,0010.19,0004.40,0004.01
2024-02-14 06:07:00,SystemResetWarning,0824.7,5.00,000.00,021.9,021.2,000.0,030.5,023.7,11.7,0000.0,0010.71,0004.38,0003.97
2024-02-14 06:08:00,SystemResetWarning,0824.6,5.00,000.00,021.9,021.2,000.0,030.5,023.7,11.7,0000.0,0010.72,0004.37,0003.94
2024-02-14 06:09:00,SystemResetWarning,0824.7,5.00,000.00,021.9,021.2,000.0,030.5,023.7,11.8,0000.0,0009.88,0004.32,0003.91
2024-02-14 06:10:00,SystemResetWarning,0824.6,5.00,000.00,021.9,021.2,000.0,030.5,023.7,11.8,0000.0,0009.94,0004.33,0003.89
2024-02-14 06:11:00,SystemResetWarning,0824.6,5.00,000.00,021.8,021.2,000.0,030.5,023.7,11.8,0000.0,0010.17,0004.31,0003.86
2024-02-14 06:12:00,SystemResetWarning,0824.6,5.00,000.00,021.8,021.1,000.0,030.5,023.7,11.7,0000.0,0010.38,0004.29,0003.86
2024-02-14 06:13:00,SystemResetWarning,0824.6,5.00,000.00,021.8,021.1,000.0,030.4,023.6,11.8,0000.0,0010.33,0004.33,0003.87
2024-02-14 06:14:00,SystemResetWarning,0824.6,4.99,000.00,021.8,021.1,000.0,030.4,023.6,12.1,0000.0,0010.48,0004.36,0003.89
2024-02-14 06:15:00,SystemResetWarning,0824.6,4.99,000.00,021.8,021.1,000.0,030.4,023.6,12.3,0000.0,0010.24,0004.39,0003.91
2024-02-14 06:16:00,SystemResetWarning,0824.7,5.00,000.00,021.7,021.1,000.0,030.4,023.5,12.3,0000.0,0010.09,0004.45,0003.95
2024-02-14 06:17:00,SystemResetWarning,0824.7,5.00,000.00,021.7,021.0,000.0,030.4,023.5,12.3,0000.0,0010.27,0004.49,0003.96
2024-02-14 06:18:00,SystemResetWarning,0824.7,5.01,000.00,021.7,021.0,000.0,030.3,023.5,12.4,0000.0,0010.17,0004.53,0003.99
2024-02-14 06:19:00,SystemResetWarning,0824.7,5.00,000.00,021.7,021.0,000.0,030.3,023.4,12.4,0000.0,0009.65,0004.56,0004.03
2024-02-14 06:20:00,SystemResetWarning,0824.7,4.99,000.00,021.6,021.0,000.0,030.3,023.4,12.4,0000.0,0009.66,0004.61,0004.08
2024-02-14 06:21:00,SystemResetWarning,0824.7,4.99,000.00,021.6,020.9,000.0,030.3,023.4,12.4,0000.0,0009.55,0004.69,0004.15
2024-02-14 06:22:00,SystemResetWarning,0824.7,5.01,000.00,021.6,020.9,000.0,030.3,023.4,12.4,0000.0,0009.14,0004.74,0004.22
2024-02-14 06:23:00,SystemResetWarning,0824.7,5.02,000.00,021.6,020.9,000.0,030.2,023.4,12.1,0000.0,0008.88,0004.80,0004.27
2024-02-14 06:24:00,SystemResetWarning,0824.7,5.00,000.00,021.6,020.9,000.0,030.2,023.4,12.0,0000.0,0010.02,0004.90,0004.34
2024-02-14 06:25:00,SystemResetWarning,0824.7,4.98,000.00,021.6,020.9,000.0,030.2,023.4,11.9,0000.0,0010.67,0004.98,0004.42
2024-02-14 06:26:00,SystemResetWarning,0824.7,4.98,000.00,021.6,020.9,000.0,030.2,023.4,11.8,0000.0,0010.88,0005.05,0004.47
2024-02-14 06:27:00,SystemResetWarning,0824.7,5.00,000.00,021.6,020.9,000.0,030.2,023.4,11.9,0000.0,0010.98,0005.11,0004.51
2024-02-14 06:28:00,SystemResetWarning,0824.7,5.00,000.00,021.6,020.9,000.0,030.2,023.4,12.0,0000.0,0011.07,0005.18,0004.58
2024-02-14 06:29:00,SystemResetWarning,0824.7,5.00,000.00,021.5,020.9,000.0,030.2,023.4,12.0,0000.0,0011.20,0005.31,0004.68
2024-02-14 06:30:00,SystemResetWarning,0824.7,5.00,000.00,021.5,020.9,000.0,030.2,023.4,12.1,0000.0,0011.45,0005.33,0004.70
2024-02-14 06:31:00,SystemResetWarning,0824.7,5.00,000.00,021.5,020.9,000.0,030.2,023.3,12.1,0000.0,0011.88,0005.35,0004.68
2024-02-14 06:32:00,SystemResetWarning,0824.7,5.01,000.00,021.5,020.8,000.0,030.1,023.3,12.3,0000.0,0011.97,0005.31,0004.63
2024-02-14 06:33:00,SystemResetWarning,0824.7,5.01,000.00,021.5,020.8,000.0,030.1,023.3,12.4,0000.0,0012.51,0005.24,0004.54
2024-02-14 06:34:00,SystemResetWarning,0824.7,5.00,000.00,021.5,020.8,000.0,030.1,023.2,12.5,0000.0,0012.27,0005.19,0004.49
2024-02-14 06:35:00,SystemResetWarning,0824.7,5.00,000.00,021.5,020.8,000.0,030.1,023.2,12.5,0000.0,0011.40,0005.12,0004.43
2024-02-14 06:36:00,SystemResetWarning,0824.7,4.99,000.00,021.4,020.7,000.0,030.1,023.2,12.4,0000.0,0010.65,0005.07,0004.39
2024-02-14 06:37:00,SystemResetWarning,0824.7,5.00,000.00,021.4,020.7,000.0,030.0,023.2,12.4,0000.0,0010.27,0005.11,0004.43
2024-02-14 06:38:00,SystemResetWarning,0824.7,5.01,000.00,021.4,020.7,000.0,030.0,023.1,12.3,0000.0,0010.13,0005.12,0004.47
2024-02-14 06:39:00,SystemResetWarning,0824.7,5.00,000.00,021.4,020.7,000.0,030.0,023.1,12.4,0000.0,0010.13,0005.14,0004.49
2024-02-14 06:40:00,SystemResetWarning,0824.7,5.00,000.00,021.3,020.6,000.0,030.0,023.0,12.5,0000.0,0010.68,0005.09,0004.40
2024-02-14 06:41:00,SystemResetWarning,0824.7,4.99,000.00,021.3,020.6,000.0,030.0,023.0,12.6,0000.0,0011.05,0005.13,0004.40
2024-02-14 06:42:00,SystemResetWarning,0824.7,5.00,000.00,021.3,020.5,000.0,029.9,023.0,12.7,0000.0,0011.06,0005.17,0004.43
2024-02-14 06:43:00,SystemResetWarning,0824.7,5.00,000.00,021.3,020.5,000.0,029.9,023.0,12.7,0000.0,0011.13,0005.19,0004.44
2024-02-14 06:44:00,SystemResetWarning,0824.7,5.00,000.00,021.2,020.5,000.0,029.9,023.0,12.7,0000.0,0010.50,0005.18,0004.47
2024-02-14 06:45:00,SystemResetWarning,0824.7,5.00,000.00,021.2,020.5,000.0,029.9,022.9,12.7,0000.0,0010.40,0005.15,0004.45
2024-02-14 06:46:00,SystemResetWarning,0824.7,5.00,000.00,021.2,020.5,000.0,029.8,022.9,12.7,0000.0,0010.87,0005.13,0004.44
2024-02-14 06:47:00,SystemResetWarning,0824.7,5.01,000.00,021.2,020.5,000.0,029.8,022.9,12.7,0000.0,0011.85,0005.11,0004.42
2024-02-14 06:48:00,SystemResetWarning,0824.7,5.00,000.00,021.2,020.5,000.0,029.8,023.0,12.8,0000.0,0012.03,0005.04,0004.35
2024-02-14 06:49:00,SystemResetWarning,0824.7,5.00,000.00,021.2,020.5,000.0,029.8,023.0,12.9,0000.0,0011.94,0004.97,0004.25
2024-02-14 06:50:00,SystemResetWarning,0824.7,4.99,000.00,021.2,020.5,000.0,029.8,023.0,13.0,0000.0,0011.78,0004.90,0004.18
2024-02-14 06:51:00,SystemResetWarning,0824.7,5.00,000.00,021.2,020.5,000.0,029.8,022.9,13.1,0000.0,0011.46,0004.82,0004.14
2024-02-14 06:52:00,SystemResetWarning,0824.7,5.00,000.00,021.1,020.5,000.0,029.8,022.9,13.1,0000.0,0011.02,0004.74,0004.08
2024-02-14 06:53:00,SystemResetWarning,0824.7,5.00,000.00,021.1,020.5,000.0,029.7,022.8,13.2,0000.0,0010.68,0004.66,0004.03
2024-02-14 06:54:00,SystemResetWarning,0824.7,5.00,000.00,021.1,020.4,000.0,029.7,022.8,13.2,0000.0,0010.56,0004.63,0004.00
2024-02-14 06:55:00,SystemResetWarning,0824.7,5.00,000.00,021.1,020.4,000.0,029.7,022.8,13.3,0000.0,0010.97,0004.64,0003.98
2024-02-14 06:56:00,SystemResetWarning,0824.7,5.00,000.00,021.0,020.4,000.0,029.7,022.8,13.3,0000.0,0011.28,0004.68,0004.00
2024-02-14 06:57:00,SystemResetWarning,0824.7,5.00,000.00,021.0,020.4,000.0,029.7,022.8,13.2,0000.0,0010.88,0004.71,0004.01
2024-02-14 06:58:00,SystemResetWarning,0824.7,4.99,000.00,021.0,020.3,000.0,029.7,022.7,13.4,0000.0,0010.52,0004.77,0004.04
2024-02-14 06:59:00,SystemResetWarning,0824.7,4.99,000.00,021.0,020.3,000.0,029.6,022.7,13.5,0000.0,0010.19,0004.77,0004.06
